カタログに戻る

STARLINK-37618

運用中通信SSO
NORAD 69228·PAYLOAD·🇺🇸 United States

打ち上げ May 26, 2026 から Vandenberg Space Force Base

Loading…

次のパス (今後24時間)

TLE

最新Source: CelesTrak SupGP

元期: Sep 15, 2026, 04:32 UTC

1 69228C 26115T   26258.18937500 -.00061125  00000+0 -18978-2 0  2587
2 69228  97.2834 274.4032 0001537  90.8754 117.8766 15.33464769    18

AllMySatでSTARLINK-37618をリアルタイム追跡

Download on the App Store